TimeCST,TemperatureF,Dew PointF,Humidity,Sea Level PressureIn,VisibilityMPH,Wind Direction,Wind SpeedMPH,Gust SpeedMPH,PrecipitationIn,Events,Conditions,WindDirDegrees,DateUTC
12:13 AM,35.6,30.2,81,29.81,10.0,South,12.7,-,N/A,,Clear,170,2012-11-21 06:13:00
12:33 AM,35.6,30.2,81,29.81,10.0,South,12.7,-,N/A,,Clear,170,2012-11-21 06:33:00
12:54 AM,35.6,30.2,81,29.81,10.0,South,9.2,-,N/A,,Clear,170,2012-11-21 06:54:00
1:13 AM,35.6,30.2,81,29.82,10.0,South,4.6,-,N/A,,Clear,190,2012-11-21 07:13:00
1:33 AM,39.2,26.6,61,29.83,10.0,Calm,Calm,-,N/A,,Clear,0,2012-11-21 07:33:00
1:54 AM,37.4,28.4,70,29.82,10.0,Calm,Calm,-,N/A,,Clear,0,2012-11-21 07:54:00
2:13 AM,37.4,28.4,70,29.82,10.0,Calm,Calm,-,N/A,,Clear,0,2012-11-21 08:13:00
2:33 AM,35.6,28.4,75,29.83,10.0,Calm,Calm,-,N/A,,Clear,0,2012-11-21 08:33:00
2:54 AM,35.6,28.4,75,29.82,10.0,Calm,Calm,-,N/A,,Clear,0,2012-11-21 08:54:00
3:13 AM,35.6,28.4,75,29.83,10.0,South,3.5,-,N/A,,Clear,170,2012-11-21 09:13:00
3:33 AM,33.8,30.2,87,29.83,10.0,South,3.5,-,N/A,,Clear,170,2012-11-21 09:33:00
3:54 AM,33.8,30.2,87,29.83,10.0,SSE,4.6,-,N/A,,Clear,150,2012-11-21 09:54:00
4:13 AM,33.8,30.2,87,29.83,10.0,SSE,4.6,-,N/A,,Clear,160,2012-11-21 10:13:00
4:33 AM,33.8,30.2,87,29.84,10.0,Calm,Calm,-,N/A,,Clear,0,2012-11-21 10:33:00
4:54 AM,35.6,28.4,75,29.83,10.0,Calm,Calm,-,N/A,,Clear,0,2012-11-21 10:54:00
5:13 AM,35.6,28.4,75,29.83,10.0,SE,3.5,-,N/A,,Clear,140,2012-11-21 11:13:00
5:33 AM,33.8,28.4,81,29.84,10.0,Calm,Calm,-,N/A,,Clear,0,2012-11-21 11:33:00
5:54 AM,33.8,28.4,81,29.83,10.0,Calm,Calm,-,N/A,,Clear,0,2012-11-21 11:54:00
6:13 AM,33.8,28.4,81,29.84,10.0,Calm,Calm,-,N/A,,Clear,0,2012-11-21 12:13:00
6:33 AM,33.8,28.4,81,29.84,10.0,Calm,Calm,-,N/A,,Clear,0,2012-11-21 12:33:00
6:54 AM,32.0,28.4,87,29.84,10.0,Calm,Calm,-,N/A,,Clear,0,2012-11-21 12:54:00
7:13 AM,32.0,28.4,87,29.85,10.0,Calm,Calm,-,N/A,,Clear,0,2012-11-21 13:13:00
7:33 AM,32.0,28.4,87,29.86,10.0,Calm,Calm,-,N/A,,Clear,0,2012-11-21 13:33:00
7:54 AM,32.0,28.4,87,29.86,10.0,Calm,Calm,-,N/A,,Clear,0,2012-11-21 13:54:00
8:13 AM,32.0,28.4,87,29.85,10.0,Calm,Calm,-,N/A,,Clear,0,2012-11-21 14:13:00
8:33 AM,32.0,28.4,87,29.86,10.0,Calm,Calm,-,N/A,,Clear,0,2012-11-21 14:33:00
8:54 AM,32.0,28.4,87,29.86,10.0,North,3.5,-,N/A,,Clear,10,2012-11-21 14:54:00
9:13 AM,32.0,28.4,87,29.86,10.0,Calm,Calm,-,N/A,,Clear,0,2012-11-21 15:13:00
9:33 AM,33.8,28.4,81,29.85,10.0,Calm,Calm,-,N/A,,Clear,0,2012-11-21 15:33:00
9:54 AM,33.8,28.4,81,29.85,10.0,Calm,Calm,-,N/A,,Clear,0,2012-11-21 15:54:00
10:13 AM,32.0,28.4,87,29.85,10.0,Calm,Calm,-,N/A,,Clear,0,2012-11-21 16:13:00
10:33 AM,33.8,28.4,81,29.84,10.0,NNW,3.5,-,N/A,,Clear,340,2012-11-21 16:33:00
10:54 AM,33.8,28.4,81,29.84,10.0,NNW,3.5,-,N/A,,Clear,340,2012-11-21 16:54:00
11:13 AM,35.6,30.2,81,29.84,10.0,Calm,Calm,-,N/A,,Clear,0,2012-11-21 17:13:00
11:33 AM,35.6,30.2,81,29.83,10.0,Calm,Calm,-,N/A,,Clear,0,2012-11-21 17:33:00
11:54 AM,35.6,30.2,81,29.82,10.0,SSE,4.6,-,N/A,,Clear,160,2012-11-21 17:54:00
12:13 PM,35.6,30.2,81,29.82,10.0,South,4.6,-,N/A,,Clear,190,2012-11-21 18:13:00
12:33 PM,35.6,30.2,81,29.82,10.0,SSW,3.5,-,N/A,,Clear,200,2012-11-21 18:33:00
12:54 PM,37.4,30.2,75,29.81,10.0,Calm,Calm,-,N/A,,Clear,0,2012-11-21 18:54:00
1:13 PM,35.6,30.2,81,29.80,10.0,Calm,Calm,-,N/A,,Clear,0,2012-11-21 19:13:00
1:34 PM,37.4,30.2,75,29.79,10.0,Calm,Calm,-,N/A,,Clear,0,2012-11-21 19:34:00
1:53 PM,37.4,30.2,75,29.79,10.0,SSE,3.5,-,N/A,,Clear,160,2012-11-21 19:53:00
2:18 PM,35.6,30.2,81,29.79,10.0,SSE,3.5,-,N/A,,Clear,150,2012-11-21 20:18:00
2:33 PM,35.6,30.2,81,29.78,10.0,SE,4.6,-,N/A,,Clear,140,2012-11-21 20:33:00
2:53 PM,35.6,30.2,81,29.76,10.0,SSE,3.5,-,N/A,,Clear,150,2012-11-21 20:53:00
3:13 PM,35.6,30.2,81,29.77,10.0,Calm,Calm,-,N/A,,Clear,0,2012-11-21 21:13:00
3:34 PM,35.6,30.2,81,29.77,10.0,Calm,Calm,-,N/A,,Clear,0,2012-11-21 21:34:00
3:58 PM,37.4,30.2,75,29.74,10.0,Calm,Calm,-,N/A,,Clear,0,2012-11-21 21:58:00
4:13 PM,37.4,30.2,75,29.74,10.0,Calm,Calm,-,N/A,,Clear,0,2012-11-21 22:13:00
4:34 PM,35.6,30.2,81,29.73,10.0,Calm,Calm,-,N/A,,Clear,0,2012-11-21 22:34:00
4:53 PM,33.8,30.2,87,29.72,10.0,Calm,Calm,-,N/A,,Clear,0,2012-11-21 22:53:00
5:13 PM,37.4,30.2,75,29.71,10.0,Calm,Calm,-,N/A,,Clear,0,2012-11-21 23:13:00
5:34 PM,39.2,32.0,75,29.70,10.0,ENE,3.5,-,N/A,,Scattered Clouds,60,2012-11-21 23:34:00
5:54 PM,39.2,32.0,75,29.70,10.0,East,4.6,-,N/A,,Mostly Cloudy,80,2012-11-21 23:54:00
6:13 PM,39.2,32.0,75,29.69,10.0,Calm,Calm,-,N/A,,Scattered Clouds,0,2012-11-22 00:13:00
6:34 PM,41.0,32.0,70,29.67,10.0,ENE,4.6,-,N/A,,Scattered Clouds,70,2012-11-22 00:34:00
6:54 PM,41.0,32.0,70,29.66,10.0,East,4.6,-,N/A,,Clear,90,2012-11-22 00:54:00
7:13 PM,42.8,32.0,66,29.65,10.0,East,4.6,-,N/A,,Clear,90,2012-11-22 01:13:00
7:34 PM,41.0,32.0,70,29.66,10.0,Calm,Calm,-,N/A,,Clear,0,2012-11-22 01:34:00
7:54 PM,42.8,32.0,66,29.66,10.0,East,3.5,-,N/A,,Clear,100,2012-11-22 01:54:00
8:13 PM,41.0,32.0,70,29.63,10.0,East,5.8,-,N/A,,Clear,90,2012-11-22 02:13:00
8:34 PM,41.0,33.8,76,29.62,10.0,East,5.8,-,N/A,,Clear,100,2012-11-22 02:34:00
8:54 PM,42.8,33.8,70,29.61,10.0,East,6.9,-,N/A,,Clear,90,2012-11-22 02:54:00
9:13 PM,41.0,33.8,76,29.61,10.0,East,4.6,-,N/A,,Clear,100,2012-11-22 03:13:00
9:34 PM,41.0,32.0,70,29.60,10.0,ESE,5.8,-,N/A,,Clear,110,2012-11-22 03:34:00
9:54 PM,41.0,33.8,76,29.58,10.0,East,6.9,-,N/A,,Clear,100,2012-11-22 03:54:00
10:13 PM,41.0,33.8,76,29.57,10.0,East,4.6,-,N/A,,Clear,100,2012-11-22 04:13:00
10:33 PM,41.0,33.8,76,29.56,10.0,ESE,5.8,-,N/A,,Clear,110,2012-11-22 04:33:00
10:54 PM,41.0,33.8,76,29.55,10.0,East,4.6,-,N/A,,Clear,100,2012-11-22 04:54:00
11:13 PM,41.0,32.0,70,29.54,10.0,ESE,6.9,-,N/A,,Clear,110,2012-11-22 05:13:00
11:33 PM,41.0,33.8,76,29.54,10.0,ESE,4.6,-,N/A,,Clear,120,2012-11-22 05:33:00
11:53 PM,41.0,33.8,76,29.54,10.0,ESE,4.6,-,N/A,,Clear,120,2012-11-22 05:53:00